Theta_e
310 311 312 312 313 314 314 312 312 311 309 310 310 310 310 309 306 302 298 297 297 296 295 295 295 295 295 295 295 294 294 294 293 292 292 291 291 291 291 291 291 291 291 291 291 290 290 289 289 288 288 288 287 287 287 287 287 286 286 286 286 286 286 285 285 285 285 285 284 284 284 284 284 284 284 284 284 284 284 283 283 283 283 283 283
309 310 312 312 312 313 313 312 311 310 309 310 310 310 309 307 304 301 298 297 296 296 295 295 294 294 294 294 294 294 294 293 293 292 292 291 291 291 291 291 291 291 291 291 290 290 290 289 289 288 288 287 287 287 287 286 286 286 286 286 286 285 285 285 285 285 285 284 284 284 284 284 284 284 283 284 284 284 283 283 283 283 283 283 283
309 309 310 311 312 311 311 312 311 309 309 310 310 310 308 306 303 299 297 296 296 295 294 294 294 294 294 294 294 293 293 293 292 292 291 291 291 290 290 291 290 291 291 291 290 290 289 289 289 288 288 287 287 286 286 286 286 286 286 286 286 285 285 285 284 284 284 284 284 284 284 284 284 284 283 284 284 284 284 284 283 283 283 283 283
309 309 309 311 312 311 310 310 310 309 309 310 310 310 308 305 302 298 296 296 296 295 294 294 294 294 294 294 293 293 293 293 292 292 291 291 290 290 290 290 290 291 291 291 290 290 289 289 289 288 288 287 287 286 286 286 286 286 286 286 285 285 285 284 284 284 284 284 284 284 284 284 284 284 284 284 284 284 284 284 284 283 283 283 283
309 309 309 311 312 311 309 309 309 309 309 310 310 309 307 304 301 297 295 295 295 295 294 294 294 294 293 293 293 293 293 293 292 292 291 290 290 290 290 290 291 292 292 291 290 289 289 289 288 288 287 287 287 286 286 286 286 286 286 286 285 285 284 284 284 284 284 284 284 284 285 284 284 284 284 284 284 284 284 284 284 284 283 283 283
309 308 309 310 310 309 309 309 310 309 310 310 310 309 307 304 300 297 295 295 295 294 294 294 294 293 293 293 293 293 293 293 292 292 291 290 290 290 290 291 293 293 293 291 290 289 289 288 288 288 287 287 287 286 286 286 286 286 286 285 285 285 284 284 284 284 284 284 285 285 285 285 284 284 284 284 284 284 284 285 285 284 284 283 283
308 308 308 309 309 309 309 309 310 310 310 310 310 309 307 304 299 296 295 295 295 295 294 294 294 293 293 293 293 293 293 292 292 292 291 290 290 290 290 292 294 295 294 292 290 289 289 288 288 288 287 287 287 286 286 286 286 286 285 285 285 284 284 284 284 284 285 285 285 285 285 285 285 285 285 285 284 284 284 285 285 285 284 283 283
308 308 307 308 309 309 309 309 310 310 310 310 310 309 308 304 299 296 295 295 295 295 294 294 294 293 293 293 293 293 292 292 292 292 291 290 290 290 291 293 294 295 295 293 290 289 288 288 288 288 287 287 287 286 286 286 286 286 285 285 284 285 285 285 285 285 286 286 286 286 285 285 285 285 285 285 284 284 284 284 285 285 284 283 283
308 308 307 307 307 308 309 310 310 310 310 310 309 309 308 304 300 296 294 295 295 294 294 294 293 293 293 292 292 292 292 292 292 292 291 290 290 290 292 293 294 295 295 294 291 290 288 288 288 288 287 287 287 286 286 286 286 285 285 285 285 285 286 286 286 286 286 286 286 285 285 286 286 285 285 285 284 284 284 284 284 284 284 283 283
307 307 307 306 306 307 308 309 310 310 310 310 309 309 307 304 300 296 294 294 294 294 294 294 293 293 292 293 293 293 293 293 292 291 290 290 291 291 292 292 293 294 295 295 293 291 289 288 288 288 287 287 287 286 286 286 285 285 285 285 286 286 286 286 286 286 286 286 286 285 285 286 286 285 285 285 284 284 284 284 283 283 283 283 283
306 307 307 306 306 306 307 309 310 309 310 309 309 308 306 304 300 296 294 294 294 294 294 293 293 293 292 292 293 293 293 292 292 291 291 291 291 291 291 292 293 293 294 295 294 292 290 289 288 288 287 287 287 286 286 286 285 285 286 286 286 286 287 287 286 286 286 286 286 286 286 286 286 285 285 285 284 284 284 283 283 283 282 282 282
306 306 306 306 305 306 307 309 309 309 309 309 309 307 305 303 299 296 294 294 294 294 294 293 293 293 292 292 292 292 292 292 292 292 292 292 291 291 291 291 292 293 293 294 294 293 291 290 289 289 288 287 287 287 286 286 286 286 286 287 287 287 287 287 286 286 286 286 286 286 286 286 285 285 284 284 283 283 283 283 282 282 282 282 281
306 305 306 306 305 305 307 308 309 309 309 308 308 306 304 302 299 296 294 293 293 293 293 293 293 293 293 292 292 292 292 292 292 293 293 292 291 291 291 291 292 292 293 294 294 293 292 291 290 289 288 287 286 287 286 286 286 286 287 287 287 287 287 287 287 287 286 286 286 286 286 285 284 284 283 282 282 282 282 282 282 282 282 281 280
305 305 305 305 305 306 306 307 308 308 308 308 307 306 303 301 298 296 294 293 293 293 293 293 293 293 293 292 292 292 291 292 293 293 292 292 292 291 291 291 291 291 292 293 293 293 293 291 291 290 289 287 286 287 287 287 287 287 287 287 287 287 287 287 287 287 286 286 286 286 286 284 284 283 282 281 281 281 282 282 282 282 282 281 279
304 304 304 305 305 306 306 307 307 307 307 307 307 306 304 302 299 296 294 293 293 293 293 293 293 293 293 292 293 292 291 292 293 292 292 292 292 291 291 292 291 291 292 292 292 292 293 292 291 291 289 287 286 286 287 287 287 287 287 287 287 287 287 286 286 286 286 286 286 286 285 284 283 282 281 280 280 281 282 282 281 280 280 279 278
304 304 304 304 305 305 306 307 307 307 307 307 306 306 306 304 302 299 296 295 294 293 293 293 293 293 293 293 293 292 292 292 293 292 292 292 292 292 292 292 291 291 291 291 292 293 292 292 291 291 289 287 287 286 286 287 287 287 287 287 287 287 287 287 286 286 286 285 285 285 284 284 283 281 280 279 280 281 281 281 279 278 277 278 278
303 303 303 303 304 304 305 307 307 307 307 307 307 307 306 306 304 303 300 298 296 295 293 292 292 292 292 293 293 292 292 293 293 292 292 292 293 292 292 292 291 290 290 291 292 293 292 291 291 290 289 288 287 287 286 286 287 287 287 287 287 287 287 287 286 286 286 285 285 285 284 283 282 280 280 279 279 279 279 279 278 276 276 276 278
303 302 303 303 303 303 304 305 306 307 307 307 307 307 307 306 305 303 302 300 299 298 295 293 292 292 292 292 293 292 292 293 293 292 293 293 293 292 292 291 290 289 290 290 291 292 292 291 291 290 289 289 288 287 286 286 287 287 287 287 287 287 287 286 286 286 286 285 285 284 284 283 282 280 279 279 278 278 278 277 276 275 275 275 276
303 302 302 302 301 301 302 303 304 305 306 306 306 306 306 305 304 303 301 300 299 297 295 292 291 291 292 292 293 292 292 292 293 293 293 293 292 291 290 289 289 288 289 290 290 291 291 291 291 290 289 289 288 287 286 286 286 287 287 287 286 287 287 286 286 286 285 285 285 284 283 282 281 280 279 279 278 277 277 276 275 275 275 275 274
302 302 301 300 300 300 301 301 302 303 304 305 305 305 305 304 302 300 299 298 297 295 294 293 292 292 292 293 293 292 292 292 293 293 293 292 291 289 288 288 288 288 288 289 290 290 290 290 290 290 289 289 288 288 287 286 286 286 286 286 286 287 286 286 285 285 285 285 284 284 283 281 280 280 280 279 278 277 276 276 275 275 275 274 274
301 300 300 299 299 299 299 300 301 301 302 303 303 302 302 300 299 298 298 298 297 297 297 296 295 295 295 295 294 294 293 293 293 292 292 291 290 288 287 287 287 287 288 288 289 289 289 289 289 289 289 288 288 287 287 287 286 286 286 286 286 286 286 285 285 285 284 284 284 283 282 281 280 281 280 279 278 277 276 275 275 275 274 274 274
300 300 299 298 298 298 299 299 299 299 299 299 299 299 298 298 298 298 298 298 298 297 297 297 296 296 296 295 295 294 293 293 292 292 291 290 289 287 287 287 287 287 287 288 288 289 289 288 288 288 288 288 288 287 287 287 286 286 286 286 286 286 285 285 285 284 284 283 283 282 281 281 281 281 280 279 277 276 275 275 275 274 274 274 273
299 299 298 298 298 298 298 298 297 297 297 297 297 297 297 297 297 297 296 295 295 294 294 293 293 293 293 292 292 292 291 291 291 290 290 289 288 287 286 286 286 287 287 287 288 288 288 288 287 287 287 288 287 287 286 286 286 286 286 285 285 285 284 284 283 283 282 282 281 281 281 281 281 280 279 278 277 276 275 275 275 274 274 273 273
299 299 298 298 298 297 297 297 297 296 296 296 296 296 295 295 294 293 293 293 292 292 291 291 291 290 290 290 290 290 289 289 289 289 288 288 287 287 286 286 286 286 287 287 287 287 287 287 287 287 286 287 287 286 286 285 285 285 285 284 284 283 282 282 281 281 280 280 280 280 280 280 280 279 278 277 276 276 275 275 274 274 273 273 273
300 299 299 298 298 297 297 296 296 295 295 295 294 294 293 293 293 292 292 291 291 291 291 291 290 290 290 290 290 289 289 288 288 288 287 287 287 287 287 286 286 286 286 286 287 287 287 287 286 286 286 286 286 285 285 285 284 284 283 282 282 281 281 280 280 280 279 280 280 280 279 279 279 279 278 277 276 276 275 275 274 274 273 272 272
300 299 299 298 298 297 296 296 295 294 294 293 293 293 293 293 292 292 292 292 292 291 291 291 291 291 291 291 290 289 289 288 288 288 287 287 287 287 287 287 286 286 286 287 287 287 287 287 286 286 286 286 285 285 285 285 284 283 282 281 280 279 279 279 279 279 279 279 279 279 279 279 278 278 277 277 276 275 275 274 274 273 272 272 271
300 300 299 298 298 297 297 296 296 295 295 294 294 294 293 293 293 293 293 293 293 292 292 292 291 291 291 291 290 289 289 289 288 288 288 288 287 287 287 287 287 287 287 287 287 287 287 287 287 286 286 285 285 285 284 284 283 282 280 279 278 278 278 278 278 278 278 279 278 278 278 278 277 277 277 276 276 275 274 274 273 273 272 271 271
299 299 299 298 298 297 297 296 296 296 296 295 295 295 294 294 294 294 294 293 293 292 292 292 292 291 291 290 290 289 289 289 289 289 288 288 288 288 288 288 288 288 288 288 288 288 288 288 287 287 286 286 285 285 284 283 282 281 280 279 278 278 277 277 277 277 277 278 278 278 277 277 277 276 276 275 275 274 274 273 273 272 271 270 270
298 298 298 297 297 297 297 296 296 296 296 295 295 294 294 294 293 293 292 292 291 291 291 291 290 290 290 289 289 289 289 289 289 289 288 289 289 288 288 288 288 288 288 288 287 288 288 287 287 287 286 286 285 285 284 283 282 282 281 280 279 278 277 277 277 277 277 277 277 277 277 276 276 275 275 275 274 273 273 272 272 271 270 270 269
297 297 297 297 297 296 296 296 295 295 294 294 293 292 292 292 291 291 291 290 290 290 290 290 289 289 289 289 289 289 289 289 289 289 289 289 289 288 288 288 288 288 288 287 287 287 288 287 287 287 286 285 285 284 284 283 282 282 281 280 279 278 277 277 277 276 276 276 276 276 275 275 275 274 274 274 273 273 272 272 271 270 270 269 269
296 296 295 295 295 294 294 293 293 292 292 291 291 290 290 290 290 290 289 290 290 289 289 289 289 289 289 289 289 289 289 289 289 289 289 289 289 289 289 289 288 288 288 288 288 288 287 287 287 286 285 284 284 283 282 282 281 280 280 279 278 277 277 276 276 276 276 275 275 275 275 274 274 274 274 273 273 272 272 271 271 270 269 268 268
293 293 293 292 292 292 291 291 291 290 290 290 290 290 290 290 290 290 290 290 290 290 289 289 289 289 289 289 289 289 289 289 289 289 289 289 289 289 289 289 288 288 288 287 287 287 287 287 286 285 284 284 283 282 281 280 279 279 278 278 277 277 276 276 276 275 275 275 275 274 274 274 274 274 274 273 272 272 271 270 270 269 268 268 267
292 292 291 291 291 291 291 291 291 291 291 290 290 290 290 290 290 290 290 290 290 289 289 289 289 289 289 289 289 289 289 289 289 289 289 289 289 289 289 288 288 287 286 285 285 285 285 285 284 284 283 282 281 280 279 278 278 277 277 277 277 276 276 276 275 275 275 275 275 274 274 274 274 273 273 272 271 271 270 269 269 268 268 267 267
291 291 291 291 291 291 291 291 291 291 291 291 290 290 290 290 290 290 290 289 289 289 289 289 289 289 289 289 289 289 289 289 289 289 289 289 289 288 288 288 287 286 285 284 284 283 283 282 282 281 280 279 278 278 277 276 276 276 276 276 276 276 276 275 275 275 275 274 274 274 273 273 273 272 272 271 270 270 269 268 268 268 268 267 267
291 291 291 291 291 291 291 291 291 291 290 290 290 290 290 290 289 289 289 289 289 289 289 289 289 289 289 289 289 289 289 289 289 289 288 288 288 288 287 287 286 285 284 283 282 281 280 279 279 278 278 277 276 276 276 276 276 276 276 276 276 276 275 275 275 274 274 274 273 273 273 272 271 271 270 269 269 269 268 268 268 268 267 267 267
291 291 291 291 290 290 290 290 290 290 290 290 290 290 289 289 289 289 289 289 289 289 289 289 289 289 289 289 289 289 289 289 288 288 288 288 287 287 286 285 285 284 283 282 281 280 279 278 278 277 276 276 276 275 276 275 275 275 275 275 275 275 275 274 274 274 273 273 273 272 271 271 270 269 269 269 269 268 268 268 268 267 267 267 266
291 291 290 290 290 290 290 290 290 290 290 290 289 289 289 289 289 289 289 289 289 289 289 289 289 289 289 289 289 288 288 288 288 287 287 287 286 286 285 285 284 283 282 281 280 279 278 278 277 277 276 275 275 275 275 275 275 275 275 274 274 274 274 274 273 273 273 272 272 271 270 269 269 269 269 269 269 269 268 268 267 267 267 266 266
291 291 291 291 291 290 290 290 290 290 290 290 290 290 290 290 290 289 289 289 289 289 289 289 289 289 289 288 288 288 287 287 287 286 286 286 285 285 285 284 283 283 282 281 280 279 278 277 277 276 275 275 275 275 275 275 275 274 274 274 274 274 274 273 273 273 272 271 270 270 269 269 269 269 269 269 269 268 268 267 267 267 267 266 266
291 291 291 291 291 291 291 291 290 290 290 290 290 290 290 290 290 290 289 289 289 289 289 288 288 288 287 287 287 287 286 286 286 285 285 285 284 284 284 283 282 282 281 280 279 278 277 276 276 275 275 274 274 274 274 274 274 274 274 274 274 274 273 273 272 272 271 270 269 269 269 269 269 269 269 269 268 268 267 267 267 267 267 267 266
291 291 291 291 291 291 291 290 290 290 290 290 290 290 290 289 289 289 289 288 288 288 287 287 287 286 286 286 286 286 285 285 284 284 284 283 283 283 283 282 282 281 280 280 279 278 277 276 276 275 275 274 274 274 274 274 274 274 274 273 273 273 272 272 271 270 270 269 269 269 269 269 269 269 269 268 268 267 267 267 267 267 267 267 267
291 291 291 291 291 290 290 290 290 290 290 290 289 289 289 288 288 288 287 287 287 286 286 286 286 286 285 285 285 284 284 284 283 283 283 282 282 282 281 281 281 280 279 279 278 277 277 276 276 275 275 275 274 274 274 274 274 273 273 273 272 272 271 271 270 270 269 269 269 269 269 269 269 269 268 268 268 267 267 267 267 267 267 266 266
291 291 290 290 290 290 290 290 290 289 289 289 288 288 287 287 287 286 286 286 286 286 285 285 285 285 284 284 284 284 283 283 283 282 282 281 281 281 280 280 279 279 278 278 277 277 276 276 275 275 274 274 274 274 273 273 273 272 272 272 271 271 270 270 270 269 269 269 269 269 269 269 269 269 268 268 267 267 267 267 267 266 266 266 265
290 290 290 290 290 289 289 289 288 288 288 287 287 286 286 286 286 285 285 285 285 285 284 284 284 284 283 283 283 283 282 282 282 281 281 280 280 279 279 278 278 278 277 277 276 276 275 275 274 274 273 273 273 272 272 272 272 271 271 271 271 270 270 270 269 269 269 269 269 269 269 269 268 268 268 267 267 267 266 266 266 266 266 265 265
290 290 289 289 289 288 288 287 287 287 286 286 286 286 285 285 285 285 284 284 284 284 283 283 283 283 282 282 282 282 281 281 281 280 280 279 279 278 278 278 277 277 276 276 275 275 274 274 273 273 272 272 272 271 271 271 271 270 270 270 270 270 270 269 269 269 269 269 269 268 268 268 268 267 267 267 266 266 266 266 266 265 265 265 265
289 289 288 288 287 287 287 286 286 286 286 285 285 285 285 284 284 284 283 283 283 283 283 282 282 282 282 281 281 280 280 280 279 279 278 278 278 277 277 276 276 275 275 274 274 274 273 273 273 272 272 271 271 271 270 270 270 270 270 270 270 270 270 269 269 269 269 269 268 268 268 267 267 267 266 266 266 266 266 266 266 266 265 265 265
288 287 287 286 286 286 286 285 285 285 285 285 284 284 284 284 283 283 283 283 282 282 282 281 281 281 280 280 280 279 279 278 278 277 277 276 276 276 275 275 275 274 274 273 273 273 273 272 272 271 271 271 270 270 270 270 270 270 270 270 270 270 269 269 269 269 268 268 268 267 267 267 267 266 266 266 266 266 266 266 266 266 266 266 266
286 286 286 286 285 285 285 285 284 284 284 284 284 284 283 283 283 282 282 282 282 281 281 281 280 280 279 279 278 278 277 277 276 276 275 275 275 275 274 274 274 273 273 273 272 272 272 272 271 271 270 270 270 270 270 270 270 270 270 269 269 269 269 269 268 268 268 267 267 267 267 267 267 267 267 267 267 266 266 266 266 266 266 266 265
285 285 285 285 284 284 284 284 284 284 283 283 283 283 283 282 282 282 281 281 281 280 280 280 279 279 278 278 277 277 276 276 275 275 275 274 274 274 274 273 273 273 272 272 272 272 271 271 271 270 270 270 270 270 270 269 269 269 269 269 269 268 268 268 268 268 267 267 267 267 267 267 267 267 267 267 267 266 266 266 266 266 266 265 265
284 284 284 284 284 283 283 283 283 283 283 282 282 282 282 281 281 281 281 280 280 279 279 278 278 278 277 277 276 276 275 275 275 274 274 273 273 273 273 272 272 272 272 271 271 271 271 270 270 270 270 270 270 270 269 269 269 269 268 268 268 268 268 268 268 268 268 268 268 268 267 267 267 267 267 267 266 266 266 266 266 266 265 265 265
284 283 283 283 283 283 283 282 282 282 282 281 281 281 281 280 280 280 279 279 278 278 278 277 277 276 276 276 275 275 274 274 274 273 273 273 272 272 272 272 271 271 271 271 270 270 270 270 270 270 270 270 269 269 269 269 268 268 267 267 267 267 268 268 268 268 268 268 268 268 267 267 267 267 267 266 266 266 266 266 266 265 265 265 265
283 283 282 282 282 282 282 281 281 281 281 280 280 280 280 279 279 278 278 278 277 277 276 276 275 275 275 275 274 274 273 273 273 273 272 272 272 272 271 271 271 270 270 270 270 270 270 270 270 269 269 269 269 268 268 268 267 267 267 267 267 268 268 268 268 268 268 268 268 267 267 267 267 267 267 266 266 266 266 266 266 265 265 265 265
Wind_Speed
34 35 35 35 36 36 34 34 34 32 31 31 32 32 33 35 36 39 39 38 36 35 34 33 31 29 27 25 24 23 22 21 20 19 17 16 14 13 12 10 9 9 8 7 8 8 9 9 10 10 11 12 12 13 13 13 14 14 13 13 14 15 15 16 19 21 20 20 21 21 22 23 24 24 26 27 27 28 29 29 30 30 31 31 30
35 36 36 36 36 35 35 35 34 32 32 33 32 33 34 36 38 40 40 38 36 35 34 33 31 28 26 25 24 23 22 20 19 18 16 15 13 12 11 10 9 8 7 8 8 9 10 10 10 11 12 13 13 14 14 14 15 15 14 15 15 15 16 17 19 22 23 22 22 22 22 23 25 25 27 28 29 30 30 31 32 32 32 32 31
34 35 37 38 38 36 36 36 35 33 33 34 33 34 35 37 39 41 41 39 36 35 34 33 30 28 27 26 25 23 22 20 18 17 15 14 12 11 11 9 8 7 7 8 9 10 11 10 11 12 13 13 14 14 15 15 15 15 15 16 16 16 17 18 19 22 24 24 23 23 23 24 25 26 28 29 30 31 31 32 33 33 33 33 32
35 36 37 38 38 37 36 36 36 36 35 35 34 34 36 38 40 42 41 39 37 35 34 32 31 29 28 27 25 24 22 20 18 17 15 13 12 11 10 9 7 7 8 10 11 11 12 12 12 13 14 14 14 14 15 16 16 16 16 16 16 17 18 19 20 21 23 24 24 23 24 25 26 27 29 30 31 32 33 34 34 34 34 34 33
36 37 37 39 39 38 37 37 38 38 37 35 35 35 36 38 41 42 42 39 37 36 35 33 32 30 29 27 25 23 22 20 18 17 16 14 13 12 10 9 8 9 10 11 12 13 13 13 14 14 15 15 15 15 16 17 17 17 17 17 17 18 19 19 20 21 23 24 24 24 24 25 27 28 29 31 32 33 35 35 36 35 35 35 35
38 38 38 40 40 39 39 39 38 38 38 36 35 34 35 38 41 43 42 40 38 37 35 34 33 31 29 27 26 24 22 20 19 17 16 15 14 12 11 9 9 10 11 12 13 14 15 15 15 15 15 16 16 17 17 18 18 18 18 18 18 19 19 20 20 21 22 23 24 24 25 26 28 29 30 32 33 35 36 37 38 37 37 38 37
39 39 39 41 41 40 40 39 39 39 38 37 35 34 35 38 41 43 42 40 39 37 36 34 33 31 30 28 26 24 22 21 20 18 17 16 14 13 12 11 11 13 13 13 14 16 16 16 16 16 16 17 17 18 19 19 19 19 19 19 19 20 19 19 20 20 21 23 24 25 26 27 28 29 31 32 34 35 37 38 39 38 38 40 40
41 40 40 41 42 41 40 39 39 38 38 37 36 35 36 38 41 43 43 41 39 38 36 35 34 32 30 29 27 26 24 22 20 19 18 17 16 15 14 14 15 16 15 15 15 16 17 17 17 17 17 18 18 19 20 20 20 19 19 19 20 20 19 19 20 20 22 24 25 26 27 28 29 30 31 33 34 35 37 38 39 40 39 41 42
41 42 41 41 42 42 41 40 39 39 38 37 36 36 36 37 40 43 44 42 40 39 37 36 35 33 32 30 29 27 25 23 22 21 19 18 17 17 17 17 18 17 18 17 16 17 18 18 18 18 19 19 19 20 20 20 21 20 19 20 20 20 19 19 20 22 23 25 26 27 28 30 30 30 32 33 34 36 37 38 39 40 40 41 42
41 43 42 40 41 42 42 41 40 39 39 37 36 36 36 38 41 44 45 44 42 41 39 38 36 35 33 32 30 28 27 25 24 22 20 20 20 20 20 20 20 19 20 20 19 19 19 19 19 19 20 21 20 20 20 21 21 20 20 20 20 20 21 21 22 24 25 27 27 28 30 31 31 31 33 33 34 36 37 39 40 41 41 42 43
40 42 43 40 40 42 42 41 40 39 38 37 36 36 36 39 42 44 46 46 44 43 41 40 38 36 34 32 31 30 29 27 25 23 23 23 23 23 23 23 23 23 22 22 21 21 21 21 21 21 22 22 21 21 21 22 22 22 22 22 22 22 23 24 25 26 27 28 29 30 31 32 32 32 34 34 35 37 38 39 40 41 41 41 42
39 41 42 41 39 41 42 41 40 39 38 37 36 36 37 40 43 46 47 47 46 44 42 40 38 36 35 34 33 32 29 27 26 25 25 26 26 26 26 26 26 26 24 23 23 23 24 23 23 23 24 24 23 22 22 23 23 24 24 24 24 25 25 26 27 28 29 30 31 32 32 33 33 34 34 34 35 37 39 40 40 40 41 40 40
39 40 41 41 39 39 40 41 40 39 38 37 36 36 38 40 43 45 47 47 45 44 42 40 39 38 37 36 34 32 30 29 28 28 28 28 27 28 29 29 29 29 26 24 24 26 27 27 25 25 25 26 26 25 24 25 25 26 26 27 28 28 28 29 29 29 31 32 33 34 34 34 35 35 35 35 36 38 39 40 40 40 41 40 39
38 39 40 41 40 38 38 40 40 39 39 37 36 36 36 38 41 43 44 45 45 44 42 42 41 40 38 36 34 33 32 31 31 30 30 30 30 30 31 32 32 31 28 26 26 29 29 29 27 26 27 29 29 27 27 27 27 28 29 30 31 31 32 32 32 32 33 35 36 37 36 36 37 37 36 36 36 38 39 40 40 40 41 41 40
36 38 39 41 40 40 39 39 40 40 39 37 36 35 35 35 37 40 41 43 43 43 44 43 42 40 38 36 35 35 35 33 32 33 33 32 32 33 33 34 34 32 31 29 30 31 29 28 28 28 28 30 30 30 30 30 29 30 31 33 33 34 35 35 33 34 35 37 38 39 38 38 38 37 37 36 36 37 39 39 39 40 41 41 41
34 36 38 39 40 41 41 40 40 39 38 37 36 36 35 35 36 37 40 41 43 44 45 44 42 41 39 38 37 37 37 35 34 35 35 34 35 36 36 37 36 35 34 33 33 33 29 28 28 29 30 31 32 33 33 32 33 34 34 35 36 37 38 37 35 36 37 38 39 39 39 39 38 38 37 34 32 34 37 38 39 40 40 40 42
30 32 34 35 37 39 40 40 40 39 38 38 37 36 36 36 36 38 40 41 42 43 43 44 44 43 41 39 39 40 39 37 36 38 38 37 37 38 38 39 38 38 37 35 34 32 29 30 30 30 31 32 33 35 36 36 37 37 38 38 39 41 42 39 37 38 39 39 40 40 39 39 38 37 34 29 27 30 35 38 39 39 38 39 42
26 27 28 30 32 35 38 39 39 39 38 38 37 36 36 37 37 38 38 38 38 39 42 44 45 44 42 40 40 41 40 39 39 40 40 39 38 39 40 40 41 40 39 37 34 32 31 33 33 32 33 33 35 37 38 39 40 40 41 41 42 44 44 41 40 41 40 41 41 40 40 40 37 34 31 30 31 33 34 35 35 34 35 37 39
21 21 23 25 28 31 33 35 36 36 35 35 35 34 35 35 35 35 34 34 34 36 39 42 43 43 42 41 41 42 42 42 42 42 41 39 38 40 41 42 43 43 42 39 36 35 34 34 35 35 35 35 36 37 39 41 42 43 43 44 46 48 46 43 42 42 42 43 43 42 40 39 36 35 35 35 36 34 31 30 30 31 34 36 36
16 17 19 20 23 24 26 27 29 29 29 30 30 30 31 31 31 31 30 30 31 32 34 38 40 42 43 42 42 43 44 45 44 42 41 39 40 42 43 44 46 46 44 42 40 39 37 36 36 37 38 38 37 38 40 42 43 44 45 47 49 49 47 45 45 45 45 46 46 44 41 38 36 37 36 36 35 32 29 29 29 31 33 34 34
15 15 16 17 18 19 20 21 22 22 23 24 25 26 27 27 27 26 26 26 27 28 29 32 35 38 39 40 41 42 44 44 44 42 41 40 41 44 45 46 47 47 46 45 44 43 42 40 39 38 39 40 40 40 42 43 44 46 47 49 50 49 48 48 48 48 48 48 48 46 43 40 39 38 37 35 33 31 29 30 31 33 34 35 34
15 15 15 16 16 16 17 17 18 19 20 21 22 22 22 22 22 21 21 22 22 23 24 26 29 31 33 35 37 38 40 42 42 42 41 41 42 44 45 46 47 47 47 47 47 46 46 45 44 43 42 42 43 44 45 45 47 49 50 51 51 51 50 51 51 50 50 49 47 46 44 42 41 40 37 34 32 30 30 30 31 34 36 36 34
15 15 15 15 15 16 16 16 17 18 18 18 18 19 19 19 19 19 19 20 20 21 22 23 25 26 28 29 31 32 34 36 37 38 39 40 42 44 44 45 47 47 48 49 49 49 49 49 48 47 44 44 45 47 48 49 50 51 52 52 52 51 51 51 52 51 50 48 46 44 44 43 41 39 36 34 32 31 31 31 32 35 37 37 33
17 17 17 16 16 17 17 17 17 17 17 18 18 18 18 18 18 18 18 19 19 20 20 21 22 23 23 24 25 25 26 27 29 31 34 37 40 42 43 44 45 47 48 50 51 51 51 50 48 46 44 44 46 48 50 52 52 53 53 51 49 48 47 46 46 46 46 45 44 44 43 42 40 38 35 34 33 32 32 32 33 36 37 35 32
18 18 18 18 18 18 18 18 18 18 18 18 18 18 18 18 18 18 18 18 18 18 18 18 19 19 20 20 20 20 20 22 23 25 29 32 35 38 39 41 42 44 46 48 48 48 48 46 44 43 42 43 44 47 50 52 52 51 50 47 44 42 41 40 40 40 41 43 43 43 42 40 38 37 35 34 34 33 32 33 35 36 35 33 32
18 18 18 18 18 19 19 19 19 19 18 18 17 17 17 16 16 17 17 17 17 16 16 17 17 17 18 17 16 16 17 18 19 21 23 26 28 30 31 33 35 37 39 41 42 42 42 42 41 41 41 42 43 45 48 49 48 47 45 41 38 37 36 36 36 37 39 40 40 40 38 37 35 35 34 34 34 33 34 35 36 35 34 33 33
17 17 18 18 18 19 19 19 19 18 18 18 17 17 17 16 16 16 15 15 15 15 15 15 15 15 15 13 13 13 15 16 16 17 18 20 22 23 26 28 29 31 34 35 36 36 37 37 37 38 39 41 43 44 46 46 46 44 42 39 37 36 34 32 32 32 34 36 36 36 35 34 33 32 32 33 33 34 35 35 36 35 34 34 34
16 17 17 17 18 18 17 17 17 17 17 17 16 16 16 15 14 13 12 12 12 12 12 12 12 11 11 10 11 12 13 13 13 14 16 18 19 21 23 25 27 28 30 31 31 33 34 35 36 37 38 39 41 42 43 44 44 43 42 41 39 37 34 32 30 28 28 30 32 33 34 33 32 31 31 32 34 34 35 34 34 34 34 34 34
17 17 18 17 17 17 17 17 17 16 16 16 15 15 14 13 12 12 11 11 11 11 11 11 10 10 10 10 10 11 11 11 12 14 16 18 19 21 22 24 25 26 27 28 29 31 32 34 35 36 36 37 38 39 40 41 41 41 41 40 38 37 34 32 31 29 27 27 28 30 31 31 30 30 31 33 33 33 33 33 33 34 34 34 35
19 19 18 18 18 18 18 18 18 17 17 16 16 15 15 14 14 13 13 13 12 12 11 10 9 10 10 9 10 11 12 12 13 15 17 19 20 22 22 23 24 25 26 26 28 30 32 32 33 34 34 35 35 35 35 36 37 37 37 36 34 33 32 31 31 29 28 27 27 28 29 29 30 30 31 32 32 31 31 32 32 33 33 34 34
18 19 19 19 19 18 18 18 18 17 17 16 15 14 14 14 13 13 12 11 11 10 10 9 10 11 11 11 12 13 14 15 16 18 20 21 22 23 25 26 27 27 28 28 29 31 31 32 33 32 31 31 31 31 31 31 31 32 32 31 29 29 28 28 27 27 27 26 26 26 26 27 28 28 29 30 30 30 30 31 32 33 33 33 31
17 18 19 19 19 18 17 17 16 16 15 15 14 13 13 12 11 11 11 10 10 10 11 11 12 13 13 13 14 15 16 18 19 21 22 23 24 25 26 27 28 28 28 28 30 31 31 32 32 31 30 28 27 26 25 25 26 26 26 26 25 24 23 22 22 22 22 22 22 23 24 25 26 27 28 29 29 30 31 32 32 33 32 29 25
17 17 17 17 17 17 16 15 15 14 13 13 12 12 12 11 11 11 11 11 12 12 13 14 14 14 15 16 16 18 19 20 20 21 22 23 24 25 26 27 27 27 26 26 28 29 30 30 31 30 29 27 25 24 23 23 22 22 22 22 21 21 21 20 19 19 20 21 22 23 24 25 26 27 28 28 30 31 32 32 31 29 26 23 21
17 16 15 15 15 14 14 14 13 13 13 13 13 13 13 13 13 13 14 14 13 14 14 15 15 16 16 17 18 19 19 20 21 21 22 23 24 25 26 27 27 26 25 24 26 27 27 27 28 28 28 28 27 25 24 23 22 22 21 21 21 21 22 21 21 21 22 22 23 23 24 25 26 28 29 29 29 30 29 28 26 23 20 19 19
16 15 15 14 14 14 14 14 14 14 14 15 14 14 15 14 14 14 15 14 14 14 15 15 16 17 17 17 18 19 20 20 21 22 23 24 24 24 25 26 27 27 26 25 25 25 25 26 26 26 27 27 27 27 26 25 23 22 22 21 22 22 23 23 23 23 23 23 24 25 26 27 27 27 27 27 25 25 23 22 20 18 18 18 19
15 15 15 15 15 15 15 15 16 16 16 16 16 16 16 15 14 14 14 14 14 15 15 15 16 17 17 18 18 19 20 21 22 23 24 25 25 24 24 25 26 27 28 27 26 26 26 26 26 26 25 25 25 26 26 26 24 23 22 22 22 22 23 23 23 24 25 26 27 27 27 26 25 24 23 22 21 20 19 18 17 16 16 17 18
15 15 15 16 16 16 16 16 16 16 16 16 15 15 14 14 14 14 14 14 14 14 15 15 16 17 18 19 19 20 21 22 23 24 25 25 25 25 25 24 24 25 26 27 27 26 26 26 26 26 25 24 24 24 26 26 26 25 24 24 24 24 24 25 27 28 28 28 28 26 24 22 21 20 20 19 18 17 17 16 15 15 15 17 18
16 16 16 16 16 16 16 15 15 15 15 14 14 13 13 14 14 14 14 14 14 15 15 16 16 17 18 19 20 20 21 22 23 24 24 25 25 25 25 25 24 24 24 25 25 25 25 26 26 26 26 25 24 25 26 26 26 26 26 27 28 29 29 30 30 30 29 27 24 21 19 18 17 17 18 18 17 16 15 15 15 15 15 16 18
16 16 16 16 15 15 15 15 15 14 14 14 14 14 14 14 14 14 14 14 14 15 15 15 16 17 18 19 20 20 21 21 22 22 23 23 24 24 24 24 24 24 23 24 24 24 25 26 26 26 26 26 26 26 27 28 29 29 30 31 31 31 30 29 28 26 24 22 19 17 16 16 16 16 17 17 15 15 14 14 15 15 16 17 18
15 15 15 15 15 15 14 14 14 14 14 14 14 14 13 13 13 13 13 13 14 14 15 15 17 17 18 18 19 20 20 20 21 21 22 22 22 23 23 23 24 23 23 23 23 23 23 24 25 26 26 26 27 28 29 30 31 31 30 29 29 28 26 25 23 21 20 17 16 15 15 15 15 16 16 15 14 14 15 14 15 16 17 18 18
14 14 14 14 14 14 14 14 14 14 13 13 12 12 11 11 11 12 12 13 13 14 15 15 16 17 18 19 20 20 20 20 20 20 21 22 22 22 23 23 23 23 23 23 22 22 23 23 24 24 25 25 26 26 27 28 28 27 26 24 23 22 21 19 18 18 17 15 15 15 15 15 15 15 15 14 15 15 15 15 15 16 17 18 18
14 14 14 13 13 13 13 13 13 12 11 10 10 10 10 10 11 11 12 12 13 14 14 15 16 17 18 19 20 21 22 22 21 21 21 21 22 22 22 22 22 22 22 22 22 23 23 24 24 24 24 24 24 24 24 24 24 22 20 19 18 17 16 16 16 16 16 16 16 16 15 15 15 14 14 14 15 15 15 15 15 16 17 18 18
13 13 13 13 13 13 12 11 10 10 9 9 9 9 9 10 10 11 12 13 13 14 15 16 17 18 19 20 20 21 22 22 22 22 22 22 21 22 22 22 22 22 22 23 23 23 23 24 23 23 23 22 21 21 20 20 19 17 16 15 15 14 14 14 15 16 17 17 16 16 15 15 15 15 14 15 15 15 15 15 16 16 17 17 17
13 13 13 12 12 11 10 10 9 9 9 9 9 9 10 10 11 12 13 14 14 15 16 16 17 18 19 20 20 21 21 22 22 22 22 22 22 22 22 22 22 23 23 23 23 23 23 23 22 21 20 19 18 17 16 16 15 14 14 14 14 14 14 15 16 17 17 17 16 16 15 15 15 15 15 15 15 15 15 15 16 16 16 16 17
12 12 11 11 10 10 9 9 9 9 9 9 9 10 10 11 12 13 14 14 15 15 16 17 17 18 19 20 20 21 21 21 21 21 22 22 22 22 22 22 23 23 23 22 22 21 20 20 20 18 17 16 16 15 15 14 14 14 14 14 14 14 14 15 16 17 17 17 16 15 15 15 15 15 15 15 15 15 15 15 16 16 16 16 17
11 11 10 10 10 9 9 9 9 9 9 9 10 11 12 12 13 14 14 15 15 16 17 17 18 18 19 20 20 20 21 21 21 20 21 21 21 22 22 22 22 22 21 20 20 19 18 18 17 16 15 15 15 14 15 15 15 15 15 14 14 15 15 16 16 16 16 16 16 15 15 14 14 14 14 14 15 15 15 16 16 17 17 17 17
11 10 10 10 9 9 9 9 9 9 10 10 11 12 12 13 13 14 14 15 16 16 17 18 18 19 19 20 20 20 20 20 20 20 20 20 20 20 20 20 20 19 19 18 18 17 17 17 16 15 14 14 14 15 15 15 16 16 16 16 16 16 16 17 16 16 16 15 15 14 14 14 14 14 15 15 15 16 16 17 17 17 17 18 18
10 10 10 9 9 9 9 9 9 10 11 11 12 12 13 13 13 14 15 16 16 17 18 19 19 19 20 20 20 20 19 19 19 19 19 19 18 18 18 18 18 17 17 17 16 16 16 16 16 15 14 14 14 15 15 16 17 17 18 17 17 17 17 17 16 15 15 15 15 15 15 15 15 15 16 16 16 17 17 18 18 18 18 18 18
10 9 9 9 9 9 10 10 10 11 11 11 12 12 13 13 14 15 16 16 17 18 18 19 19 19 19 19 19 19 19 19 18 18 18 17 17 17 17 17 16 16 16 15 15 16 16 15 15 15 15 15 15 15 16 17 18 19 19 19 18 17 16 16 15 15 15 15 15 16 16 16 16 16 16 16 17 17 18 18 18 18 19 18 18
9 9 9 9 9 9 10 10 10 11 11 11 12 13 13 14 15 16 16 17 17 18 18 18 18 18 18 18 18 18 18 18 18 17 17 17 17 16 16 16 16 16 15 15 15 15 15 15 15 16 16 16 17 17 17 18 19 19 19 18 17 16 16 15 15 15 16 16 17 17 17 17 17 17 16 17 17 17 18 18 18 18 18 18 18
9 9 9 9 9 10 10 10 11 11 11 12 12 13 14 15 15 16 16 17 17 17 17 17 17 17 18 18 18 18 18 17 17 17 17 17 17 16 16 16 16 16 15 15 15 15 15 16 17 17 18 18 18 18 18 18 18 18 18 17 16 16 16 15 15 16 17 17 18 18 18 17 17 17 16 16 17 17 17 18 18 18 18 18 18
Wind_Direction
218 214 215 217 219 219 220 221 223 226 223 215 214 216 217 217 215 212 211 211 211 209 208 209 209 208 205 204 204 207 209 210 209 208 206 205 205 210 218 223 225 230 236 244 250 255 259 262 266 269 271 271 269 268 268 268 269 270 274 277 280 284 289 293 295 296 298 300 301 304 308 310 312 313 313 313 315 317 319 321 322 324 326 327 328
219 215 215 217 219 220 220 221 224 225 220 215 215 216 217 217 215 213 212 212 212 211 211 211 210 208 207 207 207 208 210 211 209 208 207 207 209 214 221 226 230 237 247 257 262 265 264 266 270 273 274 273 271 270 270 270 272 274 277 279 282 286 290 292 294 296 298 301 302 306 310 311 312 313 313 314 316 318 319 320 322 324 325 325 326
221 217 216 218 219 220 221 222 225 223 218 216 217 217 218 217 215 214 214 213 213 212 212 212 211 210 208 209 209 209 209 209 207 207 208 208 210 217 224 227 232 245 257 266 270 269 268 270 275 276 274 273 271 271 273 273 273 275 276 279 282 285 288 290 292 294 297 301 305 309 312 312 313 313 314 315 316 318 319 320 321 323 323 323 325
223 219 217 218 218 220 222 224 225 223 219 219 220 219 218 217 216 215 214 214 214 213 213 213 213 212 211 210 209 210 209 207 207 206 206 207 208 215 223 227 237 253 265 271 273 272 273 275 276 275 273 273 274 274 274 274 274 274 275 277 280 283 286 288 290 293 296 301 306 310 312 312 313 313 314 315 317 318 319 319 319 321 321 322 323
225 221 218 219 220 222 224 224 223 221 220 221 222 221 219 218 217 216 215 215 215 215 214 214 214 213 212 211 211 211 209 208 208 206 205 206 207 212 221 228 244 262 268 272 274 274 275 275 274 274 273 274 276 276 275 274 273 273 274 277 278 281 284 287 289 292 295 300 305 309 311 311 311 313 314 315 317 318 318 317 318 319 320 320 321
226 224 221 220 222 224 224 223 221 221 221 223 224 223 220 219 217 216 216 216 216 216 217 217 216 215 213 212 212 211 210 208 208 206 205 206 207 213 220 230 251 266 268 268 270 272 272 272 272 274 275 277 277 277 275 273 273 273 274 276 278 280 283 286 288 291 294 298 303 306 308 309 310 313 315 315 317 317 316 316 316 317 319 319 319
227 226 224 221 222 224 224 222 222 222 224 226 226 225 222 220 218 217 216 217 218 218 218 219 218 216 214 212 212 211 211 209 208 206 205 206 210 214 220 237 259 269 267 264 266 270 271 271 274 275 276 277 277 275 274 272 272 273 274 276 278 280 283 284 287 290 294 297 299 302 305 307 309 312 313 314 315 315 314 314 314 316 318 318 317
228 228 227 222 221 223 224 223 224 225 227 228 228 227 224 220 218 218 217 219 219 220 220 221 219 217 215 213 213 213 211 210 209 209 208 208 212 216 226 246 263 271 269 262 261 267 270 271 273 275 275 276 274 272 272 272 272 273 274 276 277 278 281 283 285 289 292 294 296 300 303 304 307 310 311 311 312 312 312 313 313 314 317 316 316
230 229 229 225 221 222 223 224 225 226 228 229 229 228 225 221 218 218 219 220 221 221 222 222 220 218 216 214 214 214 214 214 214 213 212 212 216 223 235 250 261 272 275 267 258 261 267 269 271 273 273 271 270 269 270 271 271 271 271 272 273 275 278 280 284 288 289 291 295 299 300 302 305 307 308 309 310 310 311 311 312 313 314 314 313
231 230 230 229 223 221 223 225 226 227 228 229 230 229 226 221 218 218 219 221 221 221 221 221 220 219 218 217 217 217 218 219 216 213 214 217 223 230 240 248 258 272 280 275 263 257 261 265 268 269 268 267 266 267 268 268 268 268 267 268 270 273 276 279 282 286 288 291 295 297 297 300 303 304 304 306 307 307 309 310 310 311 312 312 312
232 232 232 231 226 222 222 224 226 228 228 229 230 229 226 222 219 219 220 221 222 222 222 222 221 220 220 220 221 222 222 219 216 216 221 226 229 234 239 246 256 268 279 282 272 259 255 259 263 264 264 264 263 264 265 265 264 264 264 265 268 271 274 278 281 285 287 290 293 294 295 298 301 301 301 303 305 305 307 308 308 309 309 309 310
233 233 232 231 228 223 221 222 224 225 226 227 228 227 225 222 219 219 220 222 223 223 222 223 223 222 222 222 223 224 224 221 220 227 232 233 234 236 239 246 256 265 275 284 281 269 258 255 259 262 262 262 261 261 262 262 262 263 264 266 268 271 273 276 279 282 285 287 290 291 293 296 297 297 299 301 302 303 305 305 305 305 305 307 308
233 233 233 232 230 226 223 223 225 225 225 227 227 226 225 223 221 221 221 223 225 225 225 225 225 224 224 224 224 225 225 224 229 236 237 235 236 239 242 249 257 263 271 282 288 281 267 257 256 260 261 261 260 259 260 261 261 263 265 268 270 272 274 276 279 282 285 287 289 290 293 294 294 295 298 299 300 302 302 302 302 303 304 306 306
232 232 232 232 230 228 225 225 227 227 226 227 227 227 227 225 224 223 224 225 227 228 228 227 227 227 226 226 228 229 228 229 236 240 237 237 241 242 246 253 258 261 267 277 289 288 274 262 260 262 260 259 260 260 260 261 262 264 266 269 272 275 276 277 280 284 287 288 290 292 294 293 293 295 296 296 298 299 299 299 300 302 303 304 304
233 232 231 231 230 228 227 226 227 228 227 229 229 230 229 228 227 227 227 228 230 231 231 231 230 230 229 229 232 231 230 233 240 241 238 242 245 246 250 256 258 259 262 270 285 290 280 269 267 265 261 260 260 261 262 263 264 266 268 271 273 275 276 277 281 284 285 286 288 291 292 292 293 293 292 293 295 295 295 297 299 300 301 302 302
234 232 231 232 230 229 229 228 229 229 229 230 231 232 232 231 230 230 229 230 231 232 233 233 233 233 232 233 235 233 232 237 243 242 241 246 249 250 255 259 258 257 258 267 284 291 281 273 272 268 263 262 262 262 263 265 267 268 270 272 274 276 276 278 282 283 283 284 286 288 289 290 290 289 288 290 291 290 293 296 296 297 298 298 298
232 232 232 234 234 232 231 230 230 230 230 231 232 234 235 234 233 232 232 232 233 234 234 234 234 234 233 235 237 236 237 242 246 244 245 250 253 254 258 260 257 255 258 268 286 291 279 272 273 270 266 264 264 264 264 265 268 271 272 274 275 276 277 280 282 282 283 284 285 286 287 287 287 286 286 285 280 281 288 291 291 292 294 294 296
227 230 232 235 235 234 232 231 231 231 232 233 234 235 237 237 236 236 235 236 237 237 236 234 233 233 234 239 241 240 242 247 248 248 250 256 258 256 258 259 255 254 258 268 284 291 283 275 273 271 269 267 266 265 265 266 269 272 273 275 275 276 279 282 283 283 284 285 285 285 285 285 284 281 278 273 269 272 280 284 287 291 293 294 296
221 225 229 232 233 233 233 232 233 233 234 236 237 238 240 240 240 240 240 240 240 239 238 235 234 234 237 242 244 244 246 249 250 252 255 259 258 254 254 254 252 253 258 266 277 288 289 283 276 272 271 270 268 267 267 267 269 272 275 276 276 278 282 284 284 284 284 284 284 283 283 282 280 277 275 272 271 275 278 280 286 294 297 296 297
213 217 221 225 227 228 229 230 232 234 236 238 239 240 242 242 243 242 241 240 240 239 237 236 235 237 240 244 245 246 248 251 253 255 257 257 254 250 249 249 251 254 259 265 272 281 287 288 284 277 274 273 271 270 269 270 271 273 275 276 278 282 285 285 284 284 285 284 284 284 282 280 278 279 279 277 277 281 282 282 290 299 302 300 297
199 202 206 211 215 218 220 223 226 228 231 234 236 238 240 241 241 240 239 239 239 239 239 239 240 241 244 247 248 249 251 254 256 257 257 255 251 248 247 248 251 255 260 264 271 278 284 288 290 287 280 276 273 273 272 272 273 274 274 276 278 282 283 283 284 284 284 283 284 283 282 281 282 284 284 281 282 284 284 285 293 301 305 304 300
185 188 191 197 202 206 208 210 214 218 221 225 229 231 233 233 233 233 234 236 239 242 245 246 248 250 251 252 253 254 256 257 258 257 256 254 250 248 248 250 253 256 261 266 272 278 283 287 291 291 287 281 276 274 274 274 275 275 276 277 279 281 282 283 283 283 282 282 281 281 282 284 285 287 286 284 282 281 280 284 292 300 305 306 302
175 178 182 187 190 192 195 198 203 207 209 212 216 217 219 220 221 224 228 233 237 241 244 247 249 251 253 254 256 257 258 259 260 259 256 253 250 250 250 252 254 258 263 268 274 278 283 286 289 291 289 284 279 276 275 275 275 275 276 278 279 281 282 283 283 283 283 283 283 283 285 286 287 289 288 283 278 276 279 285 293 300 305 306 302
172 173 174 177 179 181 183 187 192 195 197 199 203 206 210 213 216 220 224 227 232 235 237 241 244 246 249 251 254 257 259 260 261 260 257 253 252 253 254 255 257 260 265 270 275 279 283 286 287 287 285 283 281 278 277 277 277 278 278 279 279 280 280 280 280 281 282 283 284 286 286 287 288 289 286 279 276 276 280 287 295 303 306 306 301
172 171 172 173 174 176 178 180 184 187 190 195 199 201 205 208 209 213 216 219 223 226 230 234 239 243 246 249 251 254 257 259 259 260 259 257 257 258 259 260 261 264 267 272 275 278 281 282 282 282 282 282 282 281 280 280 281 282 282 282 282 281 279 278 277 276 276 278 280 281 282 284 286 285 281 277 276 278 284 291 298 303 306 306 303
171 170 172 172 172 175 176 177 180 182 185 189 192 195 199 202 204 207 210 213 218 222 226 231 235 240 244 246 248 251 254 257 258 259 260 261 261 262 263 264 265 265 267 269 271 273 276 278 281 283 284 283 283 282 281 282 283 284 284 284 283 281 280 279 278 277 277 278 279 279 280 281 282 281 279 278 279 282 287 293 296 300 305 308 307
171 171 171 172 173 175 176 178 180 181 182 185 187 190 193 197 201 205 208 212 216 219 223 229 233 238 243 246 250 253 254 255 256 257 259 260 261 261 261 261 262 262 263 265 268 270 273 276 277 279 280 281 282 282 283 284 286 286 287 287 286 285 285 283 280 278 278 278 278 278 278 277 278 280 281 282 283 286 289 291 294 298 306 310 309
167 169 170 172 173 174 175 178 179 180 182 185 187 190 193 196 200 203 206 209 213 216 220 225 229 234 239 242 246 249 250 252 255 258 259 259 258 258 259 260 261 262 264 267 269 271 272 273 274 274 275 276 278 279 281 283 285 287 288 288 289 290 290 289 286 283 279 276 274 274 274 276 278 281 282 282 283 285 287 289 292 299 306 309 309
165 167 168 169 170 171 172 174 175 177 180 180 181 184 187 189 191 192 194 197 199 204 209 212 217 226 232 236 243 249 252 254 258 258 259 260 261 261 262 263 265 267 269 271 273 275 276 278 279 278 278 278 278 279 280 282 284 286 287 289 290 291 290 289 288 287 284 278 274 273 273 275 276 277 278 280 282 284 286 287 292 299 304 307 308
164 165 165 166 167 167 168 169 170 172 174 175 176 177 178 180 183 185 189 193 197 201 206 209 218 230 236 241 249 255 257 259 262 263 266 268 270 271 273 274 276 278 279 280 281 283 283 284 285 284 284 283 283 283 284 285 286 287 288 290 291 290 289 288 288 288 286 281 276 274 274 274 275 277 279 281 283 285 285 287 292 299 303 305 306
163 162 162 163 163 163 164 165 166 168 169 171 173 174 176 179 182 185 190 196 201 208 215 221 230 238 243 246 252 258 263 268 271 273 276 277 279 281 283 285 286 287 288 288 287 287 288 289 289 289 289 289 289 289 289 289 288 289 291 292 292 290 289 288 288 286 284 281 278 277 276 276 276 278 280 282 284 285 286 289 294 299 301 303 305
163 161 161 161 161 162 164 165 167 168 171 173 175 177 181 185 190 196 201 207 215 223 231 237 241 245 249 252 256 261 267 271 274 277 280 282 285 287 288 290 291 292 292 291 291 292 294 294 294 294 294 293 293 292 291 291 291 293 294 295 295 294 292 290 288 284 280 279 277 276 276 277 278 280 282 285 286 287 289 292 296 299 301 303 303
163 164 164 164 165 167 169 170 173 176 179 183 187 191 195 200 207 215 220 224 229 235 239 243 246 250 254 259 263 268 271 274 277 280 282 284 286 287 288 290 291 291 291 291 291 293 295 294 295 296 295 296 296 295 295 296 296 295 296 296 296 296 294 291 287 282 280 278 277 278 279 281 282 285 286 287 288 289 292 295 296 298 301 302 303
167 171 172 173 174 177 179 181 186 190 194 200 205 209 213 215 219 226 231 234 237 240 243 246 249 254 258 264 269 273 276 279 281 283 285 286 286 288 290 290 290 290 290 290 290 291 292 292 292 294 295 297 298 299 300 301 299 296 294 293 292 291 290 288 286 284 283 282 283 284 285 285 287 288 288 288 289 291 293 295 297 299 301 302 302
177 180 183 185 187 191 193 197 201 205 209 213 216 220 224 226 228 231 234 236 237 239 243 248 253 258 262 267 271 275 278 280 282 284 286 287 288 290 291 291 292 292 291 290 289 288 287 287 288 290 292 293 296 298 300 300 299 296 293 290 288 287 287 286 286 286 286 287 288 288 289 289 290 290 288 288 291 293 295 297 299 300 301 301 301
190 193 196 200 202 204 207 210 212 215 218 221 223 225 227 229 230 231 232 235 237 240 245 251 256 262 265 268 272 275 277 279 282 283 284 286 287 289 288 288 289 290 290 289 288 287 285 285 286 287 287 288 290 292 293 293 293 292 291 289 288 287 286 287 288 288 289 290 290 291 291 292 291 289 288 290 293 294 296 297 297 297 298 299 301
201 205 208 211 212 213 216 217 218 221 222 222 223 224 225 226 229 230 232 236 240 244 249 254 259 264 268 271 274 276 278 280 282 283 284 286 288 289 289 288 287 285 285 285 285 285 285 286 287 287 287 286 286 286 286 286 287 288 288 288 288 288 289 289 291 291 291 292 292 293 293 292 290 289 290 292 294 294 294 294 293 294 297 300 302
206 209 211 213 214 215 217 218 218 219 220 220 221 223 225 228 231 234 237 242 246 251 256 260 264 268 271 275 278 279 280 282 283 285 288 291 292 293 293 292 290 287 285 283 283 283 282 282 283 283 283 282 282 281 281 281 282 283 285 287 288 290 291 292 292 292 291 292 292 292 291 290 290 290 291 292 293 293 292 292 294 297 299 300 302
209 210 211 212 214 214 215 217 217 218 220 222 224 226 229 232 236 240 245 250 255 260 264 267 270 273 275 277 279 281 282 284 287 289 292 293 294 295 295 294 293 291 288 285 283 281 279 278 279 279 278 278 277 277 277 278 280 282 284 286 288 289 290 290 290 289 288 289 289 289 288 289 289 289 290 291 292 293 293 295 297 299 300 301 302
209 210 211 213 215 215 216 217 219 221 223 225 227 229 233 238 242 248 254 258 262 267 270 273 275 277 279 280 282 285 288 289 291 293 294 294 295 295 294 294 293 292 290 288 286 283 282 281 281 281 280 279 278 277 277 279 280 282 284 285 286 287 287 287 286 285 284 285 286 286 286 286 286 286 288 291 292 293 295 297 299 300 300 301 302
211 213 214 215 216 218 219 221 223 224 226 229 233 237 242 247 252 256 261 265 268 271 274 276 278 281 283 286 288 290 292 294 295 296 296 296 296 296 295 294 293 293 292 291 291 290 289 289 288 287 285 284 282 282 281 282 282 284 285 285 284 284 284 284 283 282 282 284 284 284 283 284 284 286 290 291 292 294 295 297 299 299 299 300 301
216 217 218 220 220 222 224 225 226 229 232 236 242 247 252 257 262 265 269 272 275 277 279 282 284 287 289 291 293 294 295 297 297 297 297 297 296 295 295 294 293 294 294 294 295 294 293 292 291 290 289 288 287 286 284 284 284 285 285 284 283 283 283 283 281 281 282 283 283 283 283 284 285 287 289 290 290 293 294 296 297 298 298 299 301
220 221 222 224 224 224 227 228 231 236 240 244 250 255 259 264 269 273 276 279 281 284 286 288 290 292 294 295 296 297 297 298 298 298 297 297 296 295 295 294 294 294 294 294 293 293 292 290 289 289 289 289 288 286 284 284 284 284 284 283 283 283 284 282 280 281 282 283 284 284 284 285 286 287 288 289 289 290 292 295 296 297 297 298 300
222 223 224 226 226 226 229 231 235 240 245 249 255 260 265 270 275 278 281 284 286 288 291 293 294 296 297 297 298 298 297 297 297 298 297 297 297 296 295 295 295 294 293 293 292 291 290 289 288 287 287 286 283 282 281 281 281 282 282 282 282 283 282 280 280 280 282 283 285 285 284 284 286 286 286 286 287 290 293 296 296 296 296 297 298
222 223 224 225 227 228 232 235 239 244 249 254 260 264 269 274 277 281 284 286 289 291 294 295 297 297 297 297 297 298 298 298 298 298 297 297 296 296 296 296 296 294 293 293 292 291 290 288 286 285 284 283 281 281 281 280 281 281 281 281 281 281 279 278 278 279 281 282 283 284 284 285 285 286 286 287 289 291 294 295 294 294 294 294 295
220 221 222 225 228 231 235 238 243 248 253 257 263 268 272 276 280 283 286 289 292 295 296 296 297 296 296 297 297 298 298 298 298 297 297 297 297 297 298 297 296 296 295 294 293 291 288 285 284 283 283 283 283 283 283 283 283 284 283 283 282 280 278 278 278 279 280 281 282 283 284 283 284 285 286 287 289 291 292 292 292 291 292 292 293
215 218 221 224 228 232 237 242 247 253 258 262 267 271 275 278 282 285 289 291 293 294 294 294 295 295 295 296 296 296 296 297 297 298 299 299 299 299 298 297 296 296 295 294 293 290 286 284 282 283 283 283 283 284 284 284 285 285 284 284 282 280 279 279 279 279 279 280 281 281 282 282 284 286 287 288 289 290 290 290 290 289 290 291 291
213 216 219 224 229 235 241 247 251 256 260 265 268 272 276 280 283 286 288 289 290 290 290 291 291 291 292 293 294 294 296 297 298 299 299 299 298 297 296 296 296 295 294 293 290 287 284 283 283 284 284 284 283 283 283 284 285 285 284 283 282 280 279 278 277 277 277 278 279 281 282 283 285 286 287 288 289 289 289 288 288 288 288 288 289
212 216 220 228 234 239 244 249 253 257 261 266 270 274 277 280 282 284 285 285 285 286 286 287 287 289 290 292 293 295 296 296 297 297 296 296 295 295 295 294 293 292 290 289 287 285 284 283 283 284 284 284 283 283 283 283 283 283 282 282 280 278 277 275 274 275 276 278 281 283 284 286 287 287 288 289 289 288 289 288 287 286 286 286 286
216 221 227 234 239 243 248 252 256 260 265 268 271 274 277 278 279 280 281 282 282 283 284 286 287 289 291 292 293 294 294 294 294 294 294 293 293 292 292 291 289 288 287 285 283 282 282 282 282 283 284 284 284 284 282 281 280 279 279 278 276 275 274 273 274 276 278 281 283 284 285 286 287 287 287 288 288 287 287 286 285 284 284 284 283
223 229 234 240 244 248 253 257 260 264 267 269 272 274 275 276 278 279 280 281 283 284 286 288 289 290 291 291 291 291 291 291 291 291 291 291 290 289 287 286 285 284 283 281 279 279 279 280 281 283 284 284 285 284 282 280 278 275 273 272 271 271 272 274 276 279 281 282 284 285 286 286 286 286 286 287 287 286 286 284 283 282 281 281 281